Location: Newark
(48.1236°N, 0.7169°W)
Time: 08:29:59
(UTC+00:00)

Envisat - Pass Details

Date: 25 November 2019
Orbit: 764 x 766 km, 98.1° (Epoch: 15 December)

Event Time Altitude Azimuth Distance (km) Brightness Sun altitude
Rises 05:36:13 0° 29° (NNE) 3,242 6.5 -17.4°
Reaches altitude 10° 05:39:27 10° 50° (NE) 2,310 6.0 -16.9°
Maximum altitude 05:42:33 16° 88° (E) 1,912 6.1 -16.4°
Drops below altitude 10° 05:45:39 10° 126° (SE) 2,299 6.6 -15.9°
Sets 05:48:51 0° 148° (SSE) 3,219 7.0 -15.4°
